Location: Dumpton Point
(51.3500°N, 1.4433°E)
Time: 22:59:37
(UTC+00:00)

Vanguard 1 - Pass Details

Date: 27 September 2022
Orbit: 650 x 3831 km, 34.2° (Epoch: 03 December)

Event Time Altitude Azimuth Distance (km) Brightness Sun altitude
Rises 16:23:32 0° 236° (WSW) 5,747 15.7 11.1°
Reaches altitude 10° 16:29:00 10° 224° (SW) 4,109 14.5 10.3°
Maximum altitude 16:35:48 21° 181° (S) 2,569 12.5 9.3°
Drops below altitude 10° 16:40:34 10° 135° (SE) 2,756 12.1 8.6°
Sets 16:43:21 0° 117° (ESE) 3,422 12.4 8.1°
